Home   Weather   Holon   Past weeks

Flag for Israel Past Weather in Holon, Israel — Yesterday and Last 2 Weeks

Now
63 °F

Clear.


Feels Like: 63 °F
Forecast: 53 / 73 °F
Wind: 5 mph from Southwest

Location: Dov Airport

Current Time: Feb 26, 2017 at 2:27:59 pm

Latest Report: Feb 26, 2017 at 1:50 pm


Visibility: 4 mi

Pressure: 30.09 "Hg

Humidity: 77%

Dew Point: 55 °F

Location of HolonLocation

Past Weather in Holon — Graph

°F

Holon Temperature Yesterday

Maximum temperature yesterday: 66 °F (at 3:50 pm)
Minimum temperature yesterday: 50 °F (at 6:50 am)
Average temperature yesterday: 61 °F

High & Low Weather Summary for the Past Weeks

 TemperatureHumidityPressure
High68 °F (Feb 19, 2:50 pm)94% (Feb 13, 8:50 am)30.39 "Hg (Feb 13, 8:50 am)
Low45 °F (Feb 17, 5:00 am)18% (Feb 19, 4:50 pm)29.92 "Hg (Feb 11, 1:50 pm)
Average56 °F66%30.12 "Hg
* Reported Feb 11 1:50 pm — Feb 26 1:00 pm, Holon, Weather by CustomWeather, © 2017

Note: Actual official high and low records may vary slightly from our data, if they occured in-between our weather recording intervals... More about our weather records

Advertising

Holon Weather History for the Previous 24 Hours

Scroll right to see more
 ConditionsComfort  
Time TempWeatherWind HumidityBarometerVisibility
1:00 pm
Sun, Feb 26
63 °FPassing clouds.10 mph73%30.09 "Hg4 mi
11:50 am61 °FHaze.10 mph83%30.12 "Hg2 mi
10:50 am59 °FScattered clouds.9 mph82%30.15 "Hg2 mi
10:25 am59 °FHaze.9 mph82%30.15 "Hg3 mi
9:50 am61 °FClear.7 mph72%30.15 "Hg5 mi
8:50 am61 °FClear.5 mph63%30.15 "Hg6 mi
7:50 am55 °FSunny.3 mph63%30.15 "Hg10 mi
6:50 am50 °FSunny.6 mph71%30.12 "Hg10 mi
5:50 am50 °FClear.6 mph71%30.12 "Hg10 mi
5:30 am50 °FClear.6 mph71%30.12 "Hg10 mi
11:50 pm
Sat, Feb 25
59 °FClear.3 mph51%30.15 "Hg10 mi
10:50 pm57 °FClear.2 mph63%30.15 "Hg10 mi
9:50 pm59 °FClear.3 mph59%30.18 "Hg10 mi
8:50 pm61 °FClear.3 mph59%30.15 "Hg10 mi
7:50 pm61 °FClear.3 mph63%30.18 "Hg10 mi
6:50 pm63 °FClear.3 mph68%30.15 "Hg10 mi
5:50 pm63 °FClear.6 mph77%30.15 "Hg6 mi
4:50 pm64 °FClear.7 mph83%30.15 "Hg5 mi
3:50 pm66 °FClear.6 mph78%30.15 "Hg4 mi
2:50 pm64 °FClear.7 mph78%30.15 "Hg4 mi
Weather by CustomWeather, © 2017

See weather overviewHow to use our weather pages

LIVE ANNULAR SOLAR ECLIPSE – Watch the eclipse as it happens